Location: Le Sartre
(44.8050°N, 2.2123°E)
Time: 21:37:02
(UTC+00:00)

Geosat - Pass Details

Date: 15 May 2026
Orbit: 758 x 760 km, 108.0° (Epoch: 10 June)

Event Time Altitude Azimuth Distance (km) Brightness Sun altitude
Rises 22:27:07 0° 26° (NNE) 3,228 7.9 -23.6°
Reaches altitude 10° 22:29:24 10° 26° (NNE) 2,299 7.0 -23.7°
Maximum altitude 22:34:25 82° 299° (WNW) 773 3.9 -24.0°
Enters shadow 22:35:40 52° 220° (SW) 942 4.2 -24.1°
